Hourly Data Report for March 24, 2018

TORONTO CITY
ONTARIO

43°40'00.000" N
79°24'00.000" W
112.50 m
6158355
71508
XTO

Download Data

Hourly Data (March 2018)
Hourly Data Report for March 24, 2018
TIME
LST
Temp Definition
°C
Dew Point Definition
°C
Rel Hum Definition
%
Precip. Amount Definition
mm

Wind Dir Definition
10's deg

Wind Spd Definition
km/h
Visibility Definition
km
Stn Press Definition
kPa
Hmdx Definition


Wind Chill Definition


Weather Definition


00:00 0.1 -8.6 52 0.0 LegendMM LegendMM   101.07     LegendNANA
01:00 -0.2 -9.7 49 0.0 LegendMM LegendMM   101.09     LegendNANA
02:00 -1.0 -10.4 49 0.0 LegendMM LegendMM   101.07     LegendNANA
03:00 -1.4 -12.0 44 0.0 LegendMM LegendMM   101.10     LegendNANA
04:00 -2.1 -13.1 42 0.0 LegendMM LegendMM   101.13     LegendNANA
05:00 -2.7 -13.5 43 0.0 LegendMM LegendMM   101.18     LegendNANA
06:00 -3.6 -13.8 45 0.0 LegendMM LegendMM   101.25     LegendNANA
07:00 -3.9 -13.7 47 0.0 LegendMM LegendMM   101.27     LegendNANA
08:00 -3.6 -14.2 44 0.0 LegendMM LegendMM   101.28     LegendNANA
09:00 -2.6 -14.0 41 0.0 LegendMM LegendMM   101.31     LegendNANA
10:00 -0.6 -13.6 37 0.0 LegendMM LegendMM   101.28     LegendNANA
11:00 0.1 -14.4 33 0.0 LegendMM LegendMM   101.24     LegendNANA
12:00 2.0 -12.9 32 0.0 LegendMM LegendMM   101.23     LegendNANA
13:00 1.2 -15.7 27 0.0 LegendMM LegendMM   101.18     LegendNANA
14:00 2.3 -16.6 23 0.0 LegendMM LegendMM   101.11     LegendNANA
15:00 2.3 -18.5 20 0.0 LegendMM LegendMM   101.03     LegendNANA
16:00 1.4 -20.8 17 0.0 LegendMM LegendMM   101.01     LegendNANA
17:00 1.4 -19.3 20 0.0 LegendMM LegendMM   101.03     LegendNANA
18:00 0.7 -15.7 28 0.0 LegendMM LegendMM   101.09     LegendNANA
19:00 -1.1 -13.8 37 0.0 LegendMM LegendMM   101.16     LegendNANA
20:00 -1.6 -14.4 37 0.0 LegendMM LegendMM   101.23     LegendNANA
21:00 -1.5 -16.9 30 0.0 LegendMM LegendMM   101.32     LegendNANA
22:00 -2.3 -17.0 31 0.0 LegendMM LegendMM   101.39     LegendNANA
23:00 -2.7 -17.5 31 0.0 LegendMM LegendMM   101.46     LegendNANA

Notes on Data Quality.

Legend

  • E = Estimated
  • M = Missing
  • NA = Not Available*
  • [empty] = Indicates an unobserved value
Date modified: